Time,TemperatureF,DewpointF,PressureIn,WindDirection,WindDirectionDegrees,WindSpeedMPH,WindSpeedGustMPH,Humidity,HourlyPrecipIn,Conditions,Clouds,dailyrainin,SoftwareType,DateUTC
2013-05-25 00:00:00,38.4,34.9,30.30,SE,126,0.0,0.0,87,0.00,,---,0.00,VWS V14.01,2013-05-25 05:00:00,
2013-05-25 00:30:00,38.8,35.3,30.28,SE,126,0.0,0.0,87,0.00,,---,0.00,VWS V14.01,2013-05-25 05:30:00,
2013-05-25 01:00:00,39.3,35.8,30.26,SE,126,0.0,0.0,87,0.00,,---,0.00,VWS V14.01,2013-05-25 06:00:00,
2013-05-25 01:30:00,39.6,35.2,30.25,SE,126,0.0,0.0,84,0.00,,---,0.00,VWS V14.01,2013-05-25 06:30:00,
2013-05-25 02:00:00,41.2,34.9,30.25,SE,126,0.0,0.0,78,0.00,,---,0.00,VWS V14.01,2013-05-25 07:00:00,
2013-05-25 02:30:00,41.0,35.6,30.26,SE,126,0.0,0.0,81,0.00,,---,0.00,VWS V14.01,2013-05-25 07:30:00,
2013-05-25 03:00:00,41.0,38.0,30.27,SE,126,0.0,0.0,89,0.00,,---,0.00,VWS V14.01,2013-05-25 08:00:00,
2013-05-25 03:30:00,40.9,37.3,30.29,SE,126,0.0,0.0,87,0.00,,---,0.00,VWS V14.01,2013-05-25 08:30:00,
2013-05-25 04:00:00,40.3,36.5,30.28,SE,126,0.0,0.0,86,0.00,,---,0.00,VWS V14.01,2013-05-25 09:00:00,
2013-05-25 04:30:00,41.0,36.5,30.28,SE,126,0.0,0.0,84,0.00,,---,0.00,VWS V14.01,2013-05-25 09:30:00,
2013-05-25 05:00:00,42.4,35.7,30.27,SE,126,0.0,0.0,77,0.00,,---,0.00,VWS V14.01,2013-05-25 10:00:00,
2013-05-25 05:30:00,43.2,35.5,30.28,WSW,245,0.0,1.0,74,0.00,,---,0.00,VWS V14.01,2013-05-25 10:30:00,
2013-05-25 06:00:00,44.1,35.7,30.30,WSW,237,0.0,0.0,72,0.00,,---,0.00,VWS V14.01,2013-05-25 11:00:00,
2013-05-25 06:30:00,44.5,35.7,30.31,WSW,237,0.0,0.0,71,0.00,,---,0.00,VWS V14.01,2013-05-25 11:30:00,
2013-05-25 07:00:00,45.8,36.6,30.32,SE,128,1.0,3.0,70,0.00,,---,0.00,VWS V14.01,2013-05-25 12:00:00,
2013-05-25 07:30:00,47.6,37.6,30.32,SW,223,0.0,3.0,68,0.00,,---,0.00,VWS V14.01,2013-05-25 12:30:00,
2013-05-25 08:00:00,49.3,38.4,30.32,SW,216,0.0,0.0,66,0.00,,---,0.00,VWS V14.01,2013-05-25 13:00:00,
2013-05-25 08:30:00,50.2,38.5,30.33,SE,138,0.0,4.0,64,0.00,,---,0.00,VWS V14.01,2013-05-25 13:30:00,
2013-05-25 09:00:00,50.9,38.8,30.33,SE,125,0.0,5.0,63,0.00,,---,0.00,VWS V14.01,2013-05-25 14:00:00,
2013-05-25 09:30:00,52.6,39.5,30.33,East,83,0.0,4.0,61,0.00,,---,0.00,VWS V14.01,2013-05-25 14:30:00,
2013-05-25 10:00:00,51.7,41.5,30.33,SSE,149,0.0,3.0,68,0.00,,---,0.00,VWS V14.01,2013-05-25 15:00:00,
2013-05-25 10:30:00,51.6,40.6,30.33,West,271,1.0,5.0,66,0.00,,---,0.00,VWS V14.01,2013-05-25 15:30:00,
2013-05-25 11:00:00,54.2,40.6,30.32,WSW,239,0.0,5.0,60,0.00,,---,0.00,VWS V14.01,2013-05-25 16:00:00,
2013-05-25 11:30:00,54.0,38.2,30.31,SSE,156,0.0,6.0,55,0.00,,---,0.00,VWS V14.01,2013-05-25 16:30:00,
2013-05-25 12:00:00,54.2,36.0,30.32,ESE,110,5.0,10.0,50,0.00,,---,0.00,VWS V14.01,2013-05-25 17:00:00,
2013-05-25 12:30:00,54.1,37.4,30.31,SE,143,0.0,9.0,53,0.00,,---,0.00,VWS V14.01,2013-05-25 17:30:00,
2013-05-25 13:00:00,54.1,37.4,30.29,SE,136,4.0,7.0,53,0.00,,---,0.00,VWS V14.01,2013-05-25 18:00:00,
2013-05-25 13:30:00,56.6,36.1,30.27,ESE,120,3.0,12.0,46,0.00,,---,0.00,VWS V14.01,2013-05-25 18:30:00,
2013-05-25 14:00:00,56.6,36.1,30.27,East,96,0.0,17.0,46,0.00,,---,0.00,VWS V14.01,2013-05-25 19:00:00,
2013-05-25 14:30:00,56.9,35.2,30.26,ESE,114,6.0,11.0,44,0.00,,---,0.00,VWS V14.01,2013-05-25 19:30:00,
2013-05-25 15:00:00,57.4,34.5,30.26,SE,142,0.0,9.0,42,0.00,,---,0.00,VWS V14.01,2013-05-25 20:00:00,
2013-05-25 15:30:00,57.2,33.1,30.27,SE,131,0.0,7.0,40,0.00,,---,0.00,VWS V14.01,2013-05-25 20:30:00,
2013-05-25 16:00:00,58.3,34.1,30.26,South,182,0.0,9.0,40,0.00,,---,0.00,VWS V14.01,2013-05-25 21:00:00,
2013-05-25 16:30:00,58.4,34.2,30.26,WNW,290,0.0,9.0,40,0.00,,---,0.00,VWS V14.01,2013-05-25 21:30:00,
2013-05-25 17:00:00,57.2,31.8,30.26,WNW,282,0.0,2.0,38,0.00,,---,0.00,VWS V14.01,2013-05-25 22:00:00,
2013-05-25 17:30:00,57.6,30.2,30.25,SE,126,0.0,5.0,35,0.00,,---,0.00,VWS V14.01,2013-05-25 22:30:00,
2013-05-25 18:00:00,56.2,32.8,30.24,ESE,115,0.0,3.0,41,0.00,,---,0.00,VWS V14.01,2013-05-25 23:00:00,
2013-05-25 18:30:00,55.7,35.3,30.23,ESE,116,0.0,2.0,46,0.00,,---,0.00,VWS V14.01,2013-05-25 23:30:00,
2013-05-25 19:00:00,54.2,33.9,30.23,ESE,107,0.0,2.0,46,0.00,,---,0.00,VWS V14.01,2013-05-26 00:00:00,
2013-05-25 19:30:00,52.4,32.2,30.23,ESE,123,0.0,4.0,46,0.00,,---,0.00,VWS V14.01,2013-05-26 00:30:00,
2013-05-25 20:00:00,49.5,32.1,30.23,ESE,123,0.0,0.0,51,0.00,,---,0.00,VWS V14.01,2013-05-26 01:00:00,
2013-05-25 20:30:00,47.1,32.2,30.24,ESE,123,0.0,0.0,56,0.00,,---,0.00,VWS V14.01,2013-05-26 01:30:00,
2013-05-25 21:00:00,45.4,31.5,30.24,ESE,123,0.0,0.0,58,0.00,,---,0.00,VWS V14.01,2013-05-26 02:00:00,
2013-05-25 21:30:00,44.2,32.0,30.25,ESE,123,0.0,0.0,62,0.00,,---,0.00,VWS V14.01,2013-05-26 02:30:00,
2013-05-25 22:00:00,43.1,32.2,30.25,ESE,123,0.0,0.0,65,0.00,,---,0.00,VWS V14.01,2013-05-26 03:00:00,
2013-05-25 22:30:00,41.9,32.5,30.25,ESE,123,0.0,0.0,69,0.00,,---,0.00,VWS V14.01,2013-05-26 03:30:00,
2013-05-25 23:00:00,40.2,34.5,30.25,ESE,123,0.0,0.0,80,0.00,,---,0.00,VWS V14.01,2013-05-26 04:00:00,
2013-05-25 23:30:00,39.3,33.7,30.24,ESE,123,0.0,0.0,80,0.00,,---,0.00,VWS V14.01,2013-05-26 04:30:00,